OBJECT A, 62185

Orbit data source: Space-Track

You're viewing an Uncataloged Satellite

Recently launched and/or uncataloged satellites may have evolving metadata. Metadata may include but not limited to: Owner, Maufacturer, Bus, Motor, and Mission.

OBJECT A, 62185 is a satellite owned by CAST (CN) in LEO that was launched on Sat, 30 Nov 2024 UTC via a CHANG ZHENG 12 launch vehicle from the Wenchang Satellite Launch Center (WSC). Unknown objects in Earth's orbit typically refer to objects detected orbiting the Earth but have not yet been identified or cataloged. These objects could be anything from previously untracked satellites, spent rocket stages, debris from satellite collisions, or even natural meteoroids temporarily captured by Earth's gravity.

Loading next visibility...
Identifier
62185, 2024-226A
Orbit
LEO
Country
Flag of CNCN / PRC
Related business
Manufacturer
CAST
Mission
Operational Civil Communications
Bus & Motor
Unknown
Mass
~300 kg wet, ~300 kg dry
Launch date (UTC)
2024-11-30 (2 years ago)
Launch vehicle
CHANG ZHENG 12
Launch site
Wenchang Satellite Launch Center (WSC)
Object type
Unknown
Shape & HBR
Box + 2 Pan, 1.3 m
Radar Cross Section
2.320 m², Large (>1 m²)

Expand to show TLE details & history
Last TLE update: 8 hours ago

TLE from 8 hours ago
0 OBJECT A
1 62185U 24226A   26171.51203792 -.00000130  00000-0  65121-5 0  9999
2 62185  50.0064 251.9479 0056504 160.4837 199.8228 13.60152992 77163
Epoch: 2026-06-20T12:17Z
TLE epoch observation values (Epoch: 2026-06-20T12:17:20.076Z)
Latitude
-0.00004°
Longitude
158.88862°
Altitude
1,075.082 km
Speed
7.296 km/s
True Right ascension
16h 47m 47s
True Declination
0° 00' 00"
Sunlit
Object was in full shadow at epoch
Visualization orbit readout
Latitude
Unknown
Longitude
Unknown
Altitude
Unknown
Speed
Unknown
Apparent Right ascension
Unknown
Apparent Declination
Unknown
Sunlit
N/A
Visualization observer readout
Local Sidereal Time
07:23:47
Azimuth
Unknown
Elevation
Unknown
Doppler factor
Unknown
Orbital elements
Apogee altitude
1,077.743 km
Perigee altitude
993.959 km
Semi-major axis
7,413.988 km
Eccentricity
0.00565
Inclination
50.0064°
RAAN
251.9479°
Arg. of periapsis
160.4837°
True anomaly
199.60468°
Mean anomaly
199.8228°
Eccentric anomaly
199.7136°
Mean motion
3.39989 °/min
Orbital period
105.89 mins
BSTAR
0.0000065121
Loading maneuver chart data...
Computing Atmospheric mass density...
Loading historical data...
Loading historical data...
Loading historical data...
Loading historical data...
Loading historical data...
Loading historical data...
Loading historical data...
Other satellites on launch #226 in the year 2024 (2024-11-30 UTC)

Documentation

Showing up to 5 results
|